[[{"header":{"parameterUnit":"m.s-1","parameterCategory":1,"la1":30.2991,"la2":30.254,"lo1":-89.0895,"lo2":-89.0444,"dy":0.0017,"dx":0.0017,"nx":28,"ny":28,"refTime":"2025-09-04T09:00:00:Z","depth":0,"parameterNumber":2,"parameterNumberName":"U-component_of_WINDS"},"data":[0,0,0,0,0,0,0,0,0,0,0,0,0,0,0,0,0,0,0,0,0,0,0,0,0,0,0,0,0,0,0,0,0,0,0,0,0,0,0,0,0,0,0,0,0,0,0,0,0,0,0,0,0,0,0,0,0,0,0.4053,0.4053,0,0.4042,0.4042,0.4041,0.4051,0.4052,0.4052,0.4052,0.404,0.4039,0.4038,0,0,0,0,0,0,0,0,0,0,0,0,0,0.4082,0.4081,0.4053,0.4053,0.4053,0.4042,0.4041,0.4041,0.4051,0.4052,0.4052,0.4052,0.404,0.4039,0.4038,0,0,0,0,0,0,0,0,0,0,0,0,0,0.407,0.4081,0.4053,0.4056,0.4056,0.4042,0.4041,0.4041,0.4051,0.4052,0.4052,0.4053,0.404,0.4039,0.4038,0.4019,0,0,0.4035,0.4034,0,0,0,0,0,0,0,0,0.407,0.4068,0.4056,0.4056,0.4056,0.4048,0.4047,0.4034,0.4051,0.4053,0.4052,0.4053,0.4042,0.4041,0.4037,0.4019,0.4018,0.4035,0.4034,0.4034,0.4033,0,0,0,0,0,0,0,0.4071,0.4069,0.4048,0.4056,0.4056,0.4058,0.4057,0.4045,0.4044,0.4053,0.4053,0.4052,0.4042,0.4038,0.4037,0.4018,0.4035,0.4034,0.4033,0.4033,0.3983,0.3983,0,0,0,0,0,0,0.4072,0.407,0.4049,0.4048,0.4065,0.4057,0.4056,0.405,0.4044,0.4044,0.4052,0.4053,0.404,0.4038,0.4037,0.4014,0.4034,0.4033,0.4032,0.3984,0.3983,0.3983,0,0,0,0,0,0,0.4072,0.407,0.4049,0.4059,0.4057,0.4056,0.4049,0.405,0.4046,0.4043,0.4043,0.4048,0.404,0.4038,0.4024,0.4014,0.4032,0.4031,0.3985,0.3984,0.3983,0.397,0,0,0,0,0,0,0.4073,0.407,0.4063,0.4059,0.4056,0.4037,0.4049,0.4049,0.4044,0.4045,0.404,0.4039,0.4041,0.4025,0.4023,0.4013,0.403,0.3986,0.3984,0.3983,0.3971,0.3968,0.3966,0,0,0,0,0,0.4074,0.4059,0.4063,0.406,0.4047,0.4036,0.4034,0.4036,0.4043,0.4036,0.4035,0.404,0.4016,0.4024,0.4021,0.4011,0.3986,0.3985,0.3983,0.3972,0.3969,0.3966,0,0,0,0,0,0,0.4062,0.4059,0.4062,0.4046,0.4041,0.4038,0.4029,0.4033,0.4026,0.4027,0.4029,0.4028,0.4013,0.401,0.4019,0.3992,0.4002,0.4,0.3994,0.3991,0.3989,0.399,0.4029,0,0,0,0,0,0.4057,0.4049,0.4046,0.4032,0.403,0.403,0.4025,0.4027,0.4022,0.402,0.4017,0.4012,0.4003,0.3997,0.3989,0.3971,0.3969,0.3962,0.396,0.3958,0.3956,0.3946,0.3943,0.3978,0.3978,0.3978,0,0,0.4048,0.4045,0.4039,0.403,0.4026,0.4017,0.4028,0.4017,0.401,0.4018,0.4004,0.4002,0.3996,0.398,0.3972,0.3977,0.3946,0.3956,0.3954,0.3953,0.3944,0.3941,0.3938,0.3977,0.3977,0.3977,0,0,0.4025,0.4023,0.401,0.4007,0.4002,0.4002,0.3999,0.3995,0.3994,0.398,0.3986,0.3977,0.3962,0.3958,0.3954,0.393,0.3934,0.3927,0.3915,0.3905,0.3902,0.39,0.3891,0.3888,0.3925,0.3925,0.3925,0,0.4014,0.4001,0.4004,0.3993,0.3988,0.3995,0.3983,0.3979,0.3971,0.3968,0.3974,0.3955,0.3952,0.3934,0.3929,0.3925,0.3921,0.3928,0.3902,0.39,0.3898,0.389,0.3886,0.3925,0.3925,0.3925,0.3925,0,0.3987,0.3977,0.3968,0.3961,0.3956,0.3944,0.3945,0.3939,0.3941,0.3941,0.3927,0.3923,0.3914,0.391,0.3912,0.3893,0.3896,0.3902,0.3912,0.3894,0.3886,0.3883,0.3923,0.3924,0.3924,0.3924,0,0,0.3956,0.3951,0.3948,0.3945,0.394,0.3932,0.3921,0.3913,0.3908,0.3902,0.3893,0.388,0.3885,0.388,0.3882,0.3874,0.3855,0.3881,0.388,0.3876,0.3834,0.3829,0.3826,0.3858,0.3858,0.3857,0.3834,0,0.3934,0.3915,0.3917,0.3899,0.389,0.3897,0.3887,0.3882,0.3882,0.3874,0.3873,0.3864,0.3872,0.3869,0.3861,0.3859,0.3847,0.3861,0.3849,0.3848,0.385,0.3822,0.3817,0.3795,0.3831,0.3831,0.383,0,0.3905,0.3899,0.388,0.3876,0.3873,0.3864,0.3857,0.3849,0.3844,0.3844,0.3839,0.3843,0.3831,0.3841,0.3825,0.3835,0.383,0.3829,0.3828,0.3826,0.3838,0.3819,0.3788,0.3785,0.3826,0.3826,0.3826,0,0.3884,0.3871,0.3858,0.3856,0.3851,0.3845,0.3843,0.3838,0.3833,0.3827,0.3824,0.3816,0.3811,0.3805,0.3806,0.3814,0.379,0.38,0.3789,0.3789,0.3783,0.3784,0.3751,0.3781,0.3781,0.3781,0.3781,0,0.3859,0.3847,0.3849,0.3841,0.3828,0.3831,0.3817,0.3816,0.3812,0.3803,0.3809,0.38,0.3802,0.3794,0.3795,0.3781,0.3779,0.3778,0.3779,0.3778,0.3778,0.3774,0.3776,0.378,0.378,0.378,0.378,0,0.3834,0.3835,0.3821,0.3818,0.3817,0.3807,0.3805,0.3797,0.3797,0.3786,0.3783,0.3783,0.3773,0.3774,0.3763,0.3764,0.3747,0.3749,0.3748,0.3749,0.3738,0.3738,0.3701,0.3696,0.373,0.3729,0.3729,0,0.3817,0.3808,0.3805,0.38,0.3797,0.3789,0.3784,0.3786,0.3781,0.3775,0.3768,0.3759,0.3752,0.3736,0.3735,0.3726,0.3728,0.3716,0.3727,0.3726,0.3728,0.3728,0.3727,0.3713,0.3713,0.3713,0.3712,0,0.3788,0.3789,0.3782,0.3775,0.3769,0.3764,0.3759,0.3754,0.3756,0.375,0.374,0.3735,0.3724,0.3715,0.3707,0.3705,0.3709,0.3709,0.3706,0.3705,0.3705,0.3704,0.3742,0.371,0.371,0.371,0.371,0.371,0.3766,0.3759,0.3755,0.3747,0.3744,0.3739,0.3732,0.3731,0.3723,0.3715,0.3717,0.3706,0.3701,0.3691,0.3688,0.3679,0.3684,0.3679,0.3678,0.3677,0.3676,0.3707,0.3678,0.3678,0.3678,0.3678,0.3678,0,0.3737,0.3735,0.3728,0.3721,0.3715,0.372,0.3715,0.3709,0.3699,0.3695,0.3688,0.3677,0.3669,0.3667,0.3658,0.3652,0.3653,0.3649,0.365,0.3649,0.3672,0.3676,0.3648,0.3648,0.3648,0.3648,0.3648,0.3648,0.3721,0.3709,0.3709,0.3695,0.3693,0.3683,0.3679,0.3675,0.3671,0.3659,0.3652,0.3651,0.3648,0.3639,0.3631,0.3631,0.3627,0.3622,0.3623,0.3644,0.3647,0.365,0.3653,0.3622,0.3622,0.36,0.36,0.36]},{"header":{"parameterUnit":"m.s-1","parameterCategory":1,"la1":30.2991,"la2":30.254,"lo1":-89.0895,"lo2":-89.0444,"dy":0.0017,"dx":0.0017,"nx":28,"ny":28,"refTime":"2025-09-04T09:00:00:Z","depth":0,"parameterNumber":3,"parameterNumberName":"V-component_of_WINDS"},"data":[0,0,0,0,0,0,0,0,0,0,0,0,0,0,0,0,0,0,0,0,0,0,0,0,0,0,0,0,0,0,0,0,0,0,0,0,0,0,0,0,0,0,0,0,0,0,0,0,0,0,0,0,0,0,0,0,0,0,-0.3882,-0.3882,0,-0.3903,-0.3903,-0.3903,-0.3883,-0.3883,-0.3882,-0.3881,-0.3904,-0.3905,-0.3906,0,0,0,0,0,0,0,0,0,0,0,0,0,-0.3826,-0.3827,-0.3882,-0.3882,-0.3882,-0.3902,-0.3903,-0.3903,-0.3883,-0.3882,-0.3882,-0.3881,-0.3903,-0.3905,-0.3906,0,0,0,0,0,0,0,0,0,0,0,0,0,-0.3849,-0.3828,-0.3882,-0.3875,-0.3874,-0.3902,-0.3903,-0.3903,-0.3884,-0.3882,-0.3881,-0.388,-0.3903,-0.3905,-0.3907,-0.3943,0,0,-0.3913,-0.3914,0,0,0,0,0,0,0,0,-0.3848,-0.3851,-0.3875,-0.3875,-0.3875,-0.3889,-0.3891,-0.3917,-0.3884,-0.388,-0.3881,-0.388,-0.39,-0.3902,-0.3909,-0.3944,-0.3945,-0.3913,-0.3914,-0.3915,-0.3916,0,0,0,0,0,0,0,-0.3846,-0.385,-0.389,-0.3876,-0.3876,-0.3871,-0.3873,-0.3896,-0.3897,-0.388,-0.3879,-0.3882,-0.39,-0.3907,-0.3909,-0.3945,-0.3913,-0.3915,-0.3916,-0.3917,-0.4012,-0.4013,0,0,0,0,0,0,-0.3845,-0.3849,-0.3889,-0.3891,-0.3858,-0.3873,-0.3875,-0.3886,-0.3896,-0.3897,-0.3883,-0.3881,-0.3904,-0.3907,-0.391,-0.3953,-0.3915,-0.3917,-0.3918,-0.4011,-0.4012,-0.4014,0,0,0,0,0,0,-0.3844,-0.3849,-0.3888,-0.3869,-0.3874,-0.3875,-0.3887,-0.3887,-0.3894,-0.3898,-0.3898,-0.389,-0.3903,-0.3907,-0.3935,-0.3954,-0.3918,-0.392,-0.4009,-0.4011,-0.4013,-0.4041,0,0,0,0,0,0,-0.3842,-0.3849,-0.3862,-0.387,-0.3875,-0.3913,-0.3888,-0.3888,-0.3897,-0.3895,-0.3905,-0.3905,-0.3902,-0.3932,-0.3937,-0.3956,-0.3921,-0.4007,-0.401,-0.4012,-0.4038,-0.4043,-0.4048,0,0,0,0,0,-0.384,-0.3869,-0.3863,-0.3868,-0.3892,-0.3914,-0.3917,-0.3913,-0.3899,-0.3913,-0.3915,-0.3905,-0.3951,-0.3935,-0.394,-0.396,-0.4006,-0.4009,-0.4012,-0.4036,-0.4042,-0.4048,0,0,0,0,0,0,-0.3864,-0.387,-0.3863,-0.3895,-0.3904,-0.3911,-0.3928,-0.392,-0.3933,-0.3931,-0.3925,-0.3928,-0.3957,-0.3961,-0.3944,-0.3996,-0.3976,-0.3981,-0.3992,-0.3999,-0.4003,-0.4002,-0.3923,0,0,0,0,0,-0.3873,-0.389,-0.3894,-0.3922,-0.3927,-0.3927,-0.3936,-0.3932,-0.3941,-0.3945,-0.395,-0.396,-0.3977,-0.3988,-0.4003,-0.4038,-0.4041,-0.4055,-0.406,-0.4064,-0.4067,-0.4087,-0.4093,-0.4024,-0.4023,-0.4023,0,0,-0.3891,-0.3897,-0.3908,-0.3927,-0.3933,-0.3952,-0.393,-0.395,-0.3964,-0.3949,-0.3975,-0.3979,-0.399,-0.4022,-0.4036,-0.4026,-0.4087,-0.4067,-0.407,-0.4072,-0.4091,-0.4097,-0.4103,-0.4026,-0.4025,-0.4025,0,0,-0.3935,-0.394,-0.3964,-0.3971,-0.3981,-0.3981,-0.3987,-0.3994,-0.3996,-0.4023,-0.4012,-0.4028,-0.4057,-0.4065,-0.4073,-0.412,-0.4111,-0.4125,-0.4151,-0.417,-0.4175,-0.418,-0.4197,-0.4203,-0.4129,-0.4129,-0.4129,0,-0.3957,-0.3983,-0.3977,-0.3999,-0.4007,-0.3994,-0.4019,-0.4026,-0.4041,-0.4047,-0.4036,-0.4072,-0.4078,-0.4112,-0.4123,-0.413,-0.4137,-0.4124,-0.4175,-0.418,-0.4184,-0.42,-0.4207,-0.413,-0.413,-0.413,-0.413,0,-0.401,-0.4029,-0.4047,-0.4061,-0.4072,-0.4095,-0.4093,-0.4105,-0.41,-0.4101,-0.4129,-0.4135,-0.4152,-0.416,-0.4155,-0.4193,-0.4187,-0.4175,-0.4155,-0.4192,-0.4208,-0.4214,-0.4133,-0.4132,-0.4132,-0.4131,0,0,-0.4069,-0.408,-0.4087,-0.4093,-0.4104,-0.4118,-0.414,-0.4157,-0.4167,-0.4178,-0.4197,-0.4221,-0.4211,-0.422,-0.4216,-0.4233,-0.427,-0.4219,-0.4219,-0.4229,-0.4313,-0.4322,-0.4329,-0.4264,-0.4265,-0.4266,-0.4312,0,-0.4113,-0.4151,-0.4147,-0.4184,-0.4201,-0.4189,-0.4208,-0.4217,-0.4219,-0.4234,-0.4236,-0.4254,-0.4238,-0.4243,-0.4259,-0.4262,-0.4287,-0.4258,-0.4282,-0.4283,-0.428,-0.4337,-0.4347,-0.4391,-0.4318,-0.4319,-0.432,0,-0.417,-0.4182,-0.4221,-0.4229,-0.4236,-0.4253,-0.4268,-0.4283,-0.4293,-0.4292,-0.4303,-0.4296,-0.4319,-0.4298,-0.433,-0.4311,-0.432,-0.4323,-0.4325,-0.4327,-0.4304,-0.4342,-0.4404,-0.4411,-0.4329,-0.4328,-0.4328,0,-0.421,-0.4236,-0.4263,-0.4269,-0.4278,-0.4291,-0.4296,-0.4304,-0.4314,-0.4327,-0.4334,-0.4349,-0.4358,-0.4371,-0.4369,-0.4353,-0.4401,-0.438,-0.4403,-0.4403,-0.4414,-0.4413,-0.4479,-0.4419,-0.4419,-0.4419,-0.4418,0,-0.426,-0.4284,-0.4281,-0.4298,-0.4324,-0.4319,-0.4346,-0.4349,-0.4357,-0.4374,-0.4364,-0.4381,-0.4377,-0.4393,-0.4392,-0.4419,-0.4423,-0.4424,-0.4423,-0.4425,-0.4425,-0.4432,-0.4429,-0.442,-0.442,-0.442,-0.4419,0,-0.431,-0.4308,-0.4337,-0.4343,-0.4345,-0.4365,-0.4371,-0.4387,-0.4387,-0.4409,-0.4414,-0.4416,-0.4434,-0.4433,-0.4455,-0.4454,-0.4487,-0.4483,-0.4484,-0.4483,-0.4506,-0.4504,-0.4579,-0.4589,-0.4522,-0.4522,-0.4523,0,-0.4342,-0.436,-0.4369,-0.438,-0.4385,-0.4402,-0.4412,-0.4408,-0.4419,-0.4432,-0.4446,-0.4464,-0.4478,-0.4509,-0.4512,-0.4529,-0.4525,-0.455,-0.4528,-0.4529,-0.4526,-0.4526,-0.4528,-0.4555,-0.4556,-0.4556,-0.4557,0,-0.44,-0.4398,-0.4413,-0.4428,-0.4441,-0.4452,-0.4463,-0.4472,-0.4469,-0.4482,-0.4501,-0.4512,-0.4534,-0.4552,-0.4568,-0.4573,-0.4565,-0.4564,-0.457,-0.4572,-0.4573,-0.4574,-0.4497,-0.4562,-0.4562,-0.4561,-0.4561,-0.4561,-0.4442,-0.4458,-0.4467,-0.4484,-0.4491,-0.4501,-0.4517,-0.4519,-0.4535,-0.4552,-0.4548,-0.457,-0.458,-0.46,-0.4607,-0.4624,-0.4615,-0.4624,-0.4626,-0.4629,-0.4632,-0.4569,-0.4627,-0.4626,-0.4626,-0.4626,-0.4626,0,-0.45,-0.4505,-0.4521,-0.4536,-0.4549,-0.454,-0.4551,-0.4563,-0.4582,-0.4592,-0.4606,-0.4628,-0.4645,-0.465,-0.4667,-0.468,-0.4677,-0.4685,-0.4684,-0.4686,-0.4638,-0.4631,-0.4687,-0.4687,-0.4687,-0.4687,-0.4687,-0.4687,-0.4532,-0.4559,-0.4558,-0.4589,-0.4593,-0.4614,-0.4621,-0.4631,-0.4639,-0.4664,-0.4678,-0.4681,-0.4688,-0.4706,-0.4722,-0.4723,-0.473,-0.4739,-0.4739,-0.4695,-0.4689,-0.4683,-0.4677,-0.4741,-0.4741,-0.4785,-0.4785,-0.4786]}]]